Location: Zagreb
(45.8000°N, 16.0000°E)
Time: 11:03:06
(UTC+01:00)

Vanguard 1 Rocket - Pass Details

Date: 03 October 2020
Orbit: 656 x 4221 km, 34.3° (Epoch: 28 October)

Event Time Altitude Azimuth Distance (km) Brightness Sun altitude
Rises 21:56:37 0° 273° (W) 6,015 12.3 -34.8°
Reaches altitude 10° 22:00:07 10° 267° (W) 5,402 11.8 -35.3°
Maximum altitude 22:16:48 48° 201° (SSW) 4,462 10.6 -37.6°
Enters shadow 22:22:19 43° 173° (S) 4,903 10.6 -38.3°
Drops below altitude 10° 22:40:32 10° 137° (SE) 7,386 - -40.6°
Sets 22:46:31 0° 133° (SE) 8,279 - -41.3°
